Location: Newark
(25.0000°N, 73.5000°E)
Time: 00:38:35
(UTC+00:00)

Tiros 1 despin weight - Pass Details

Date: 04 March 2021
Orbit: 593 x 641 km, 48.2° (Epoch: 15 April)

Event Time Altitude Azimuth Distance (km) Brightness Sun altitude
Rises 23:20:29 0° 334° (NNW) 2,929 - -29.0°
Exits shadow 23:23:56 - 2° (N) 2,080 ? -28.3°
Reaches altitude 10° 23:24:17 10° 6° (N) 2,025 ? -28.2°
Maximum altitude 23:26:08 12° 29° (NNE) 1,885 ? -27.8°
Drops below altitude 10° 23:28:00 10° 53° (NE) 2,026 ? -27.3°
Sets 23:31:47 0° 84° (E) 2,934 ? -26.5°
